Pitt Meadows, British Columbia

6:13 AM PDT on August 26, 2016 (GMT -0700)
Pitt Meadows

Weather History for CWMM - October, 2012

Change the Weather History Date:

Friday, October 26, 2012

  Actual Average (CYXX) Record (CYXX)
Temperature  
Mean Temperature 44 °F -  
Max Temperature 47 °F 52 °F 62 °F (1998)
Min Temperature 41 °F 39 °F 32 °F (1996)
Degree Days  
Heating Degree Days 21    
Moisture  
Dew Point 42 °F    
Average Humidity 88    
Maximum Humidity 94    
Minimum Humidity 76    
Precipitation  
Precipitation 0.08 in - - ()
Sea Level Pressure  
Sea Level Pressure 30.19 in    
Wind  
Wind Speed 4 mph ()    
Max Wind Speed 9 mph    
Max Gust Speed -    
Averages and records for this station are not official NWS values.
T = Trace of Precipitation, MM = Missing Value Source: Averaged Metar Reports

Daily Weather History Graph

Daily Weather History Graph

Search for Another Location

Airport or City:

Trip Planner

Search our weather history database for the weather conditions in past years. The results will help you decide how hot, cold, wet, or windy it might be!

Date:

Astronomy

Oct. 26, 2012 Rise Set
Actual Time 7:49 AM PDT 5:58 PM PDT
Civil Twilight 7:16 AM PDT 6:31 PM PDT
Nautical Twilight 6:39 AM PDT 7:08 PM PDT
Astronomical Twilight 6:02 AM PDT 7:45 PM PDT
Moon 4:27 PM PDT 4:38 AM PDT
Length of Visible Light 11h 14m
Length of Day
10h 08m
Waxing Gibbous, 91% of the Moon is Illuminated
Oct 26
Waxing Gibbous
Oct 29
Full
Nov 6
Last Quarter
Nov 13
New
Nov 20
First Quarter

Hourly Weather History & Observations

Time (PDT) Temp. Windchill Dew Point Humidity Pressure Visibility Wind Dir Wind Speed Gust Speed Precip Events Conditions
12:00 AM 42.4 °F - 39.9 °F 91% 30.38 in - Calm Calm - N/A   Unknown
1:00 AM 42.4 °F - 40.1 °F 91% 30.35 in - NE 1.2 mph - N/A   Unknown
2:00 AM 43.7 °F - 39.7 °F 86% 30.34 in - East 1.2 mph - N/A   Unknown
3:00 AM 45.0 °F 41.2 °F 39.9 °F 82% 30.32 in - NE 6.9 mph - N/A   Unknown
4:00 AM 45.3 °F 40.6 °F 38.3 °F 76% 30.30 in - NE 9.2 mph - N/A   Unknown
5:00 AM 44.8 °F 39.9 °F 39.0 °F 80% 30.28 in - NE 9.2 mph - N/A   Unknown
6:00 AM 44.8 °F 39.9 °F 38.7 °F 79% 30.26 in - NNE 9.2 mph - N/A   Unknown
8:00 AM 45.0 °F 41.2 °F 38.1 °F 77% 30.22 in - NE 6.9 mph - N/A   Unknown
9:00 AM 44.1 °F 39.0 °F 39.6 °F 84% 30.22 in - NNE 9.2 mph - 0.02 in   Unknown
11:00 AM 43 °F - 41 °F 89% 30.24 in - NE 4.6 mph - -  
11:00 AM 42.8 °F 40.1 °F 40.8 °F 93% 30.24 in - NE 4.6 mph - 0.04 in   Unknown
12:00 PM 45.0 °F 43.5 °F 43.3 °F 94% 30.21 in - NNE 3.5 mph - 0.03 in   Unknown
1:00 PM 45.1 °F 41.4 °F 42.8 °F 91% 30.17 in - NNE 6.9 mph - N/A   Unknown
2:00 PM 46.6 °F - 43.5 °F 89% 30.16 in - NNE 5.8 mph - N/A   Unknown
3:00 PM 46.9 °F - 43.9 °F 89% 30.13 in - NNE 4.6 mph - N/A   Unknown
4:00 PM 46.8 °F - 44.1 °F 90% 30.12 in - North 2.3 mph - N/A   Unknown
5:00 PM 47 °F - 44 °F 87% 30.11 in - ESE 3.5 mph - -  
5:00 PM 46.6 °F - 44.4 °F 92% 30.11 in - ESE 3.5 mph - N/A   Unknown
6:00 PM 45.5 °F 44.2 °F 43.3 °F 92% 30.10 in - NE 3.5 mph - N/A   Unknown
7:00 PM 45.3 °F - 42.6 °F 90% 30.10 in - Calm Calm - N/A   Unknown
8:00 PM 44.8 °F 42.4 °F 42.6 °F 92% 30.10 in - North 4.6 mph - N/A   Unknown
9:00 PM 44.8 °F 42.4 °F 43.2 °F 94% 30.09 in - North 4.6 mph - 0.02 in   Unknown
10:00 PM 44.4 °F 42.0 °F 42.6 °F 93% 30.07 in - NNE 4.6 mph - 0.01 in   Unknown
11:00 PM 44 °F - 43 °F 94% 30.06 in - Calm Calm - -